Wind_Speed
16 16 16 15 14 13 12 11 11 10 10 10 10 11 12 13 14 15 16 17 18 18 17 17 16 16 15 15 15 15 15 15 16 16 17 17 18 18 19 19 20 20 20 19 20 21 22 23 24 25 26 27 27 28 28 29 30 30 31 32 33 35 35 35 36 35 34 36 38 37 37 37 37 38 38 37 36 37 38 39 41 43 43 43 43
16 16 15 14 13 12 11 10 10 9 8 8 9 10 12 13 14 15 15 16 17 17 17 16 15 15 14 14 14 14 15 15 15 16 16 16 17 18 18 19 19 18 18 18 20 21 22 24 25 25 26 26 27 27 28 28 29 30 32 33 34 35 36 37 38 38 37 37 38 39 39 40 40 40 41 40 39 38 38 38 39 41 42 43 44
18 17 16 14 12 10 10 9 9 8 7 6 6 8 10 12 14 15 15 16 16 16 16 15 15 14 13 13 13 13 14 14 14 14 14 15 17 17 17 17 17 16 17 19 20 22 23 24 25 25 26 26 26 27 28 28 30 31 32 33 34 35 36 37 38 40 40 39 40 41 41 41 42 42 42 42 41 40 39 37 36 37 39 41 42
19 17 15 14 12 12 11 11 10 9 8 7 7 9 11 13 14 15 16 16 15 15 15 15 14 13 12 12 12 13 13 12 12 13 14 16 17 16 15 15 15 16 17 19 20 22 23 24 25 25 26 26 27 27 28 29 30 31 32 33 34 35 36 37 38 40 41 42 42 43 44 44 43 43 43 43 41 39 38 37 34 33 34 36 38
19 18 16 15 15 15 14 14 13 12 10 9 9 11 13 14 15 16 16 15 14 14 14 14 13 12 11 11 12 11 11 11 12 13 14 15 15 14 13 14 15 16 18 19 20 21 22 23 24 25 25 26 27 28 29 30 30 31 32 32 33 35 36 37 39 40 41 43 43 44 45 45 45 44 44 44 42 39 36 33 31 30 30 30 32
20 19 18 18 17 17 17 17 16 15 13 12 11 13 14 16 16 16 15 14 13 13 13 12 11 11 10 10 10 10 10 11 13 13 13 13 13 12 13 14 15 16 18 19 20 21 22 23 23 24 25 26 27 28 29 30 31 31 31 33 34 36 37 38 40 41 42 44 45 46 46 46 46 45 44 44 44 42 39 34 28 26 28 28 28
21 20 19 19 19 19 20 19 18 17 15 13 13 14 15 15 15 15 14 13 13 12 11 10 10 10 9 9 9 10 11 12 12 11 11 12 12 12 13 14 15 16 18 19 21 21 22 22 23 23 25 26 27 28 29 29 30 31 32 34 35 37 38 40 41 43 44 45 46 47 47 46 45 45 44 43 42 42 41 38 31 26 27 29 28
22 21 19 19 19 20 19 18 17 16 14 13 13 14 14 15 14 14 13 13 11 10 10 9 9 8 8 8 10 11 11 10 10 10 11 11 12 12 13 14 15 16 17 19 20 21 21 22 23 24 25 27 28 28 29 29 30 32 34 35 37 38 40 41 43 44 45 46 46 47 47 45 44 44 44 43 42 40 40 40 38 33 31 30 28
22 21 20 19 19 19 18 17 16 14 13 13 14 14 14 14 14 13 12 11 10 9 9 9 8 8 8 9 10 10 9 9 9 10 10 11 12 13 14 14 15 16 17 18 19 20 21 22 23 25 26 27 28 28 29 30 32 33 35 36 38 39 41 42 43 44 45 46 46 47 46 45 45 45 45 45 44 43 42 42 41 39 37 32 28
23 22 21 20 20 19 18 16 15 14 13 14 14 14 14 14 13 11 11 10 9 9 9 9 8 9 9 10 9 8 8 8 9 9 10 11 12 14 14 15 16 16 17 17 17 19 20 22 23 25 26 26 26 27 28 30 32 34 35 37 38 40 41 41 43 44 45 46 46 47 47 46 45 46 47 47 46 46 46 46 46 44 42 38 31
25 24 23 22 21 20 18 17 16 16 15 15 14 14 14 13 12 11 10 10 9 9 9 9 9 9 9 9 8 8 8 8 8 9 10 11 12 13 14 15 15 16 17 17 17 18 20 21 23 24 25 25 25 26 28 30 31 32 33 35 36 38 39 41 42 43 44 45 45 46 46 47 47 47 48 49 48 48 48 49 50 49 49 47 41
27 26 24 23 23 21 19 18 19 19 17 16 15 15 14 12 11 10 10 10 9 9 9 9 10 9 8 8 8 8 8 8 8 9 10 11 12 13 14 14 15 15 16 16 17 19 20 21 22 23 23 24 24 26 27 28 29 30 31 32 34 35 36 38 40 42 43 44 45 46 46 47 48 48 50 51 51 51 50 50 51 52 52 53 50
29 26 24 25 24 22 20 20 21 19 17 16 15 14 13 12 10 10 10 10 9 10 10 10 9 9 8 8 7 7 7 8 8 9 10 11 12 13 13 14 14 15 16 17 18 19 21 22 22 22 23 23 25 26 26 27 27 28 29 31 32 33 34 35 37 39 41 44 45 46 47 48 49 49 51 52 52 52 52 51 52 53 54 54 53
29 25 25 26 25 23 23 23 21 19 17 17 15 14 13 11 10 11 11 11 10 10 10 9 9 9 8 7 7 6 7 8 8 9 10 11 12 12 13 13 14 14 16 17 18 20 20 21 22 22 23 24 25 25 25 26 26 27 28 30 31 33 34 35 36 37 40 42 45 46 46 47 49 50 50 51 52 52 52 52 53 54 55 55 54
28 26 26 25 25 25 25 24 22 19 18 16 14 13 12 11 11 11 11 11 11 11 10 10 10 9 8 7 6 6 7 8 9 9 9 10 11 11 12 12 13 14 15 17 18 19 20 20 21 22 23 24 25 26 26 26 26 27 29 30 31 32 34 35 36 38 40 42 43 45 46 46 48 49 50 50 50 50 50 50 51 53 55 56 56
26 25 24 23 24 24 22 21 20 17 16 15 13 13 12 11 12 12 12 12 11 11 11 11 10 8 7 6 6 6 7 8 9 9 9 9 10 11 11 12 13 14 16 17 18 19 19 20 21 22 23 25 25 26 26 26 27 28 29 30 31 32 33 34 36 38 39 40 42 43 44 45 46 47 48 48 48 48 48 48 50 53 56 58 58
24 23 21 21 24 23 20 17 17 15 14 14 13 13 13 12 13 14 13 12 11 11 12 11 9 8 6 6 6 7 8 8 9 8 8 8 9 10 11 12 13 14 15 16 17 18 18 19 20 22 24 24 25 25 25 26 27 28 29 30 31 32 33 34 35 36 37 39 40 41 43 44 45 46 47 47 47 48 49 51 53 55 58 60 60
22 22 21 21 22 23 20 16 16 15 14 13 13 13 13 14 14 15 14 13 13 13 12 11 9 7 6 6 7 7 8 9 8 8 8 8 8 9 10 11 12 14 15 16 16 17 18 19 21 22 23 24 24 25 25 26 27 29 30 31 32 32 34 36 36 37 37 37 38 40 42 44 45 47 47 47 46 47 48 51 53 56 58 59 59
21 21 20 19 20 21 20 17 17 16 15 14 14 14 14 15 16 15 14 15 15 14 13 11 9 7 7 6 7 8 8 8 8 7 8 8 8 9 10 11 12 13 14 15 16 16 18 19 21 22 23 23 24 24 25 26 28 29 31 32 32 33 35 38 39 39 39 39 40 41 42 44 46 47 47 48 47 47 47 47 49 54 57 57 55
21 21 19 17 18 19 20 18 18 17 15 15 16 16 15 16 16 15 15 16 16 14 12 10 9 7 7 7 7 8 8 7 7 7 7 7 8 8 9 10 12 13 14 14 15 16 18 19 21 21 22 22 23 24 25 26 28 30 31 32 33 34 36 38 39 39 40 40 41 42 43 44 46 47 49 50 50 48 45 45 47 51 55 56 52
21 20 18 17 17 18 19 19 18 17 16 16 16 16 16 16 17 16 16 17 16 14 12 10 9 7 7 7 8 8 7 6 6 6 6 7 7 8 9 10 12 12 13 13 14 16 17 19 20 20 21 22 23 24 25 26 28 30 31 32 34 35 36 36 37 38 39 40 41 42 43 44 46 48 50 51 51 49 46 45 47 49 52 54 50
21 20 20 18 16 16 18 19 18 17 17 16 16 16 16 17 18 18 18 17 16 14 12 10 9 8 8 8 8 7 6 6 5 5 5 6 7 7 9 10 11 11 11 12 14 15 17 18 19 19 20 21 22 23 25 26 28 29 30 32 33 34 34 35 36 37 39 40 41 43 44 46 47 49 51 52 52 51 47 46 47 47 48 49 46
21 21 21 18 15 15 17 18 18 17 16 16 16 16 17 18 20 20 19 18 16 14 12 10 9 8 8 8 8 6 6 5 4 4 4 5 5 6 8 9 9 10 10 12 13 15 16 17 18 19 20 21 22 23 24 26 27 28 30 31 32 33 34 35 35 37 38 40 41 43 45 47 48 49 51 53 54 53 49 45 44 45 45 45 43
23 23 21 18 16 16 16 17 17 17 16 16 17 17 18 20 21 20 20 18 16 14 12 10 9 9 9 8 7 6 5 5 3 3 3 3 4 6 7 8 8 8 10 11 13 14 15 16 17 19 20 21 22 23 24 26 27 28 29 31 32 33 34 35 36 37 39 40 42 43 45 47 48 49 51 52 53 52 49 44 42 42 43 43 42
24 24 22 19 17 17 15 16 18 18 17 17 17 17 19 21 21 21 20 18 16 14 12 10 10 10 9 8 7 6 6 4 2 2 2 2 3 6 6 6 6 7 9 11 12 14 15 16 17 18 19 21 22 23 24 25 27 28 29 30 31 32 34 35 36 38 39 41 42 43 44 46 47 48 49 49 50 51 51 47 44 42 41 41 41
24 22 19 17 17 16 14 15 18 19 18 18 18 18 21 22 22 21 20 18 16 13 12 11 11 10 9 9 8 7 6 4 2 2 1 1 4 5 5 5 5 7 8 10 11 13 14 15 16 17 18 20 21 22 23 24 26 27 28 30 31 33 34 35 37 38 39 41 42 43 44 45 45 46 46 47 49 52 53 53 50 46 44 43 42
22 20 18 16 15 15 15 17 20 20 19 19 20 22 24 24 23 21 19 17 15 13 12 12 12 10 10 9 8 7 6 4 3 3 2 2 4 5 4 4 5 6 8 9 10 12 14 15 16 17 18 19 21 22 23 24 25 26 27 29 30 32 34 35 37 38 38 39 41 42 43 44 44 45 46 47 49 50 53 54 54 51 48 45 43
21 19 18 17 16 16 18 20 21 19 19 20 22 23 24 24 23 21 19 16 14 13 13 13 12 11 10 10 9 8 6 5 5 4 3 4 5 5 4 4 5 6 8 9 10 11 12 14 15 17 18 20 21 22 23 23 24 25 26 28 29 31 32 33 34 36 37 38 39 40 42 43 44 45 46 47 48 49 51 53 54 53 50 47 46
23 21 20 18 18 18 20 21 21 19 19 21 23 23 24 23 22 21 19 17 15 15 15 14 13 12 11 11 10 9 7 7 6 6 5 4 4 4 3 3 4 6 7 8 9 10 12 13 15 17 18 19 20 21 22 23 24 25 26 27 28 29 31 32 33 35 37 38 39 40 41 42 44 45 45 46 47 48 49 50 52 53 52 50 49
25 23 21 20 19 19 21 22 21 19 20 21 23 23 24 23 22 21 19 18 17 17 16 14 13 12 12 12 11 10 9 8 8 7 5 4 3 2 2 3 5 6 7 8 9 10 11 13 14 16 17 18 19 20 21 22 23 25 26 27 28 29 30 32 33 34 36 37 39 40 40 41 42 44 45 46 47 47 48 49 50 52 53 53 51
28 26 24 23 21 20 22 22 20 19 19 20 22 23 23 23 22 21 20 19 19 17 15 14 13 13 13 13 12 11 10 10 9 7 5 4 2 1 1 3 5 6 8 9 10 11 12 13 14 16 18 19 19 20 21 22 23 25 26 27 28 29 29 31 32 33 34 35 37 38 39 40 41 42 44 45 46 46 46 47 48 49 51 53 53
32 31 28 26 23 22 23 22 19 18 18 19 22 23 23 22 21 21 21 20 18 17 16 15 15 15 14 14 13 13 12 11 9 8 6 4 3 2 3 4 5 7 8 10 11 12 13 14 15 17 18 20 20 21 21 23 24 25 26 26 27 28 29 30 32 33 34 34 35 36 38 39 40 41 42 43 44 45 46 46 47 48 49 50 51
33 32 30 27 25 24 23 21 18 17 17 18 21 22 23 22 21 22 21 19 18 17 17 17 17 16 16 15 15 14 13 12 10 8 6 5 4 4 4 5 7 8 10 11 12 13 14 15 16 17 19 20 21 22 22 23 24 25 26 27 27 28 29 30 31 32 33 34 34 35 36 37 38 39 39 40 42 44 45 46 46 46 47 48 49
28 28 29 29 26 25 23 20 18 17 17 19 21 22 22 22 22 22 20 18 18 18 18 18 17 16 16 16 15 15 14 12 11 9 7 6 6 6 6 6 8 10 11 13 14 14 15 16 17 18 19 20 21 22 23 23 24 25 26 26 27 28 29 30 30 31 32 33 33 34 34 35 36 37 38 38 39 41 43 44 45 46 46 47 47
27 26 30 30 28 26 23 20 18 17 18 19 21 22 22 23 23 23 21 19 19 18 18 18 17 17 17 17 16 16 15 13 11 10 8 8 8 8 7 8 9 11 13 14 15 15 16 17 18 19 20 21 21 22 23 23 24 25 25 26 26 26 27 28 29 30 31 32 32 33 34 34 35 35 36 38 38 38 40 42 43 44 45 45 45
28 28 31 32 31 29 26 22 19 18 19 20 22 23 24 24 24 23 22 21 21 21 20 20 19 18 18 17 17 16 15 13 12 11 10 10 10 9 9 10 11 12 14 15 15 16 17 18 20 21 21 22 22 22 23 23 24 24 24 25 25 25 26 26 27 28 29 30 31 32 33 33 33 34 34 35 36 37 38 38 40 41 42 43 43
29 28 31 34 33 31 28 25 23 21 22 23 25 26 26 25 25 24 22 22 22 22 22 21 20 19 18 18 17 17 16 14 13 12 11 11 11 11 11 11 12 13 15 15 16 16 17 19 21 22 23 23 23 23 24 24 24 24 24 24 25 26 26 26 26 27 28 28 29 30 31 32 33 33 33 33 34 35 35 36 36 38 39 40 40
28 27 29 33 35 34 31 28 25 24 25 27 27 27 26 26 25 24 23 22 22 22 21 20 19 19 19 19 19 18 16 15 14 13 13 13 12 12 12 13 14 15 16 16 17 17 18 19 21 22 24 24 25 26 26 26 26 26 25 24 25 26 26 27 27 27 27 28 28 29 29 30 31 32 32 32 33 33 34 34 35 35 36 37 38
29 28 28 31 35 34 32 29 28 27 27 28 28 28 27 26 25 24 23 22 22 21 20 20 20 20 20 20 19 18 16 16 15 15 14 13 13 13 14 14 15 16 17 17 18 18 19 20 21 23 24 25 26 27 29 29 28 27 26 25 25 25 26 27 28 27 27 28 28 28 28 28 29 30 31 31 32 32 32 33 33 34 34 35 36
29 27 27 31 35 36 32 29 28 28 28 28 28 27 26 25 24 23 22 21 21 20 20 20 20 21 21 21 20 18 17 17 17 16 15 14 14 14 14 15 15 16 17 18 18 19 20 21 22 24 25 26 27 29 30 29 29 27 26 26 25 26 26 27 28 28 28 28 28 28 28 27 27 28 28 29 30 31 31 31 32 32 33 33 33
27 26 27 32 36 37 35 32 29 28 28 28 27 27 25 24 23 22 21 21 21 21 20 20 21 22 22 21 20 19 18 18 17 17 16 15 14 14 15 15 16 17 17 18 19 20 21 22 23 24 25 26 28 29 29 28 27 26 25 25 26 26 26 27 27 28 29 30 29 29 28 28 28 27 27 27 28 29 29 30 30 30 30 30 30
26 25 25 29 34 37 38 35 32 30 29 29 28 27 25 23 22 22 21 21 22 21 20 20 21 22 23 22 20 19 18 18 18 17 16 15 15 15 15 16 16 17 18 19 20 21 22 23 24 25 26 27 28 28 27 26 25 25 25 25 26 26 26 27 28 29 30 31 31 30 29 28 28 27 27 26 26 27 27 28 29 29 29 28 28
25 24 24 26 30 35 38 36 33 32 32 31 29 26 25 24 23 23 22 22 22 21 20 20 21 22 23 23 21 20 19 19 18 17 16 16 16 16 16 17 17 18 19 20 21 22 22 23 24 25 25 26 26 26 25 25 25 25 25 26 26 26 26 27 28 30 31 32 33 32 31 29 28 28 27 26 25 25 25 26 27 28 28 28 27
23 22 22 24 27 33 37 37 36 36 36 34 30 27 27 27 26 24 23 22 21 21 20 20 21 22 23 23 22 20 19 19 18 18 17 17 17 17 17 18 19 20 20 21 21 22 23 24 24 24 24 25 25 24 24 24 24 25 26 26 26 26 27 28 29 30 31 33 34 34 33 31 30 28 27 26 25 24 24 24 25 26 27 27 27
20 21 22 23 26 32 37 39 40 40 39 36 33 32 31 29 26 23 22 22 21 20 20 20 21 22 23 22 21 20 19 19 19 18 17 17 18 18 18 19 20 21 21 21 22 23 23 24 24 24 24 23 23 23 22 23 23 24 24 25 26 26 26 27 28 29 30 32 33 34 34 33 31 29 27 25 25 24 23 23 24 24 25 26 27
18 20 21 22 25 30 36 40 42 42 41 39 37 36 33 29 25 23 23 22 21 20 20 21 22 22 21 21 21 21 20 20 19 18 18 18 18 19 19 20 21 21 21 22 22 23 23 24 24 24 24 23 23 22 22 22 22 23 23 24 24 24 24 25 26 27 29 31 32 33 32 32 30 29 27 25 24 24 24 24 24 24 24 25 26
18 19 21 22 24 27 33 37 39 40 40 40 38 35 31 27 24 23 23 22 21 21 21 22 22 22 21 21 22 21 21 20 20 19 19 19 19 19 20 21 22 22 22 22 23 23 23 24 24 24 24 23 23 23 23 23 23 23 23 22 22 22 22 23 25 26 27 28 29 29 29 28 28 28 27 25 24 23 23 24 24 24 25 25 25
17 19 20 21 22 24 28 32 34 35 37 38 37 33 29 25 24 23 23 22 22 21 22 22 22 22 22 22 22 22 21 21 20 20 20 20 20 21 22 23 23 23 23 23 23 23 23 23 23 23 23 23 24 24 24 23 23 22 22 21 20 21 21 23 24 25 24 24 25 25 25 25 26 26 26 26 25 23 23 23 24 24 25 25 26
19 20 21 21 21 22 26 28 30 33 36 37 35 31 27 24 23 22 22 21 21 21 21 22 22 22 22 23 23 22 22 22 21 20 20 21 21 22 23 24 24 23 23 23 23 23 23 23 23 23 24 24 25 25 25 24 23 21 20 20 20 21 22 23 24 24 23 22 22 22 22 23 24 24 25 25 25 24 23 23 23 24 24 24 25
21 22 22 21 21 22 24 27 30 33 36 34 31 28 25 22 21 20 20 19 19 20 20 21 22 22 23 23 23 23 23 22 21 21 21 22 22 23 24 24 24 24 23 23 23 23 23 23 23 24 24 25 26 26 26 24 23 21 21 21 21 21 23 25 25 24 23 22 22 22 22 22 23 24 25 25 25 25 25 24 24 24 24 25 25
23 23 23 22 22 23 24 27 32 35 34 31 28 26 23 21 20 19 19 19 19 19 20 21 22 23 23 24 24 24 23 22 22 22 22 22 23 23 24 25 25 24 24 24 23 23 24 24 24 24 25 25 26 26 26 24 23 22 21 21 22 23 24 26 26 25 24 23 23 23 23 23 24 24 24 25 26 26 26 25 25 25 25 25 25
Wind_Direction
212 214 211 211 214 217 222 229 238 248 258 268 274 276 276 276 275 274 273 274 276 279 283 286 289 288 287 287 288 292 296 299 302 303 304 304 302 301 303 305 305 305 307 311 316 321 325 326 327 328 328 329 330 330 330 330 330 330 330 330 330 330 329 328 327 327 326 323 321 320 317 315 312 309 306 303 299 296 293 292 290 289 288 285 282
217 216 213 214 216 221 228 235 240 248 256 265 272 275 273 270 268 269 270 273 278 283 285 286 285 284 284 286 290 294 297 299 301 302 302 301 299 300 302 303 304 307 313 319 323 326 327 328 329 330 331 331 331 332 333 333 332 333 333 333 332 331 330 329 328 327 327 326 323 321 320 318 316 313 310 307 304 301 297 294 292 289 288 286 284
216 215 215 216 220 225 229 229 229 234 242 258 277 282 276 269 266 267 269 274 279 282 282 281 281 282 284 288 291 293 296 298 299 299 298 298 297 299 301 303 307 315 321 324 327 328 329 330 331 332 332 333 334 335 335 335 336 336 335 334 333 332 331 331 331 329 329 328 327 325 324 322 320 318 315 312 310 307 304 301 298 294 291 289 286
214 215 216 218 222 224 224 222 223 230 243 263 283 287 281 271 266 266 268 273 277 276 275 276 278 282 285 288 290 292 294 295 294 294 295 295 295 298 302 307 315 322 325 326 328 330 331 332 333 333 335 335 337 337 337 338 338 337 336 334 333 334 334 333 333 333 331 331 330 329 328 327 325 323 320 317 314 312 309 307 305 301 296 293 290
215 215 216 219 224 226 227 228 232 241 256 270 280 284 280 271 265 265 267 270 269 269 271 274 278 281 283 285 287 287 288 289 290 292 293 293 295 301 308 316 323 325 326 327 329 331 333 334 334 335 337 338 339 339 339 339 339 337 336 336 336 336 337 337 336 336 335 334 333 332 332 331 330 328 326 321 317 315 312 309 309 306 301 295 292
217 217 219 224 229 234 237 238 241 249 260 268 275 279 274 266 262 262 263 263 262 264 268 273 276 277 279 281 280 281 284 286 289 290 291 292 298 307 315 321 324 325 326 329 331 333 334 334 336 337 339 341 341 341 341 339 338 338 338 339 340 340 340 340 339 339 339 338 337 335 336 335 333 331 329 325 322 320 316 311 309 308 305 300 293
220 221 224 229 234 239 242 242 244 250 256 263 269 271 265 259 256 257 258 258 259 263 266 268 271 272 272 271 272 277 283 286 287 290 292 298 305 313 319 321 323 325 328 331 333 334 334 335 338 341 342 343 343 342 341 340 339 341 342 343 343 343 343 343 342 342 342 342 340 338 338 338 335 332 330 327 325 323 321 317 313 311 310 308 303
221 223 226 230 234 239 241 241 242 247 252 258 262 262 256 251 250 252 254 255 258 261 261 261 262 260 260 265 273 279 281 283 287 292 298 304 310 315 319 321 324 328 331 334 333 333 335 339 342 343 344 345 345 343 342 342 344 345 346 346 346 346 346 345 345 345 345 344 343 341 339 339 336 332 330 329 327 327 328 326 325 323 319 316 314
223 223 224 227 231 235 238 238 240 245 250 253 255 251 245 245 248 250 251 254 255 254 253 251 247 247 258 269 275 277 278 283 290 296 303 310 314 316 319 321 326 331 333 334 334 335 339 343 345 346 347 347 345 345 345 346 348 349 348 348 349 348 348 347 347 346 346 346 344 342 341 340 337 334 334 334 333 333 333 333 333 332 327 322 322
223 224 224 227 230 232 235 239 242 245 246 247 246 240 238 243 248 248 248 248 245 243 242 238 238 251 266 270 270 271 277 286 293 300 309 315 316 316 319 324 328 332 333 333 336 340 343 346 347 348 349 348 347 347 350 351 352 351 351 351 351 350 349 349 349 348 348 348 347 345 343 342 341 339 338 338 337 336 337 337 337 336 332 327 325
223 224 225 227 230 233 237 242 243 241 238 236 234 231 234 241 245 245 243 239 235 233 230 234 249 263 265 260 260 268 278 288 297 308 315 316 315 316 320 325 328 330 331 335 341 345 346 347 349 350 349 348 349 353 355 355 354 353 354 353 353 352 351 350 351 350 349 349 349 348 346 345 346 344 341 340 339 338 339 339 339 337 336 334 331
223 222 223 227 232 235 237 239 238 234 227 224 223 224 229 237 240 238 235 230 227 224 229 245 259 258 250 249 258 271 282 295 306 314 316 314 314 317 320 325 327 329 334 340 344 346 348 350 351 350 350 350 355 358 358 356 356 355 356 356 355 355 354 353 353 351 350 351 351 352 350 349 349 347 344 342 340 339 339 338 338 337 337 337 334
222 219 222 228 232 232 233 234 234 229 220 215 216 219 226 232 231 228 227 225 223 227 242 255 251 240 239 249 263 276 290 304 311 314 314 313 314 317 321 325 328 332 338 343 346 349 350 351 351 351 352 355 359 0 359 358 357 357 357 358 357 357 357 357 355 353 353 353 354 355 354 353 351 350 347 343 341 339 339 338 338 336 335 335 334
224 219 223 230 233 229 226 227 226 221 216 213 212 216 225 227 221 221 222 221 224 237 248 244 230 229 241 253 267 284 298 307 309 310 311 312 313 317 322 327 331 337 343 346 349 351 351 351 352 352 355 359 1 1 359 359 358 358 359 0 360 359 359 359 358 356 356 356 356 356 356 355 353 351 348 345 341 340 338 337 337 335 334 334 334
226 224 226 233 238 235 229 223 218 212 210 210 211 217 223 220 215 219 222 224 232 241 238 227 223 231 244 257 274 291 298 302 304 306 309 310 313 319 325 330 336 342 346 348 351 351 350 351 354 355 358 1 2 0 359 359 360 0 2 3 2 1 2 1 359 360 360 358 357 358 357 356 354 352 349 345 341 339 337 336 335 334 334 334 333
229 232 232 234 239 241 236 227 219 212 207 207 213 219 219 216 215 219 224 230 235 233 223 220 226 235 246 262 278 289 294 297 300 303 307 310 315 323 329 335 340 344 348 351 353 351 351 354 356 359 2 3 2 0 359 359 1 3 5 5 4 4 4 3 3 3 1 359 359 358 358 358 356 353 350 347 343 340 338 337 336 335 335 334 334
233 238 239 237 237 236 232 225 217 212 208 209 214 215 214 216 216 219 226 231 228 221 217 220 227 234 247 264 274 285 291 292 296 301 306 313 321 329 335 339 343 347 351 354 353 351 353 357 0 3 4 4 2 0 360 0 2 4 6 7 6 5 5 6 7 6 3 0 0 359 359 359 358 356 354 350 346 343 341 341 339 337 336 335 336
236 239 241 245 240 228 219 215 212 210 210 209 211 211 213 217 218 222 228 227 218 214 215 219 224 234 246 260 272 282 286 287 294 302 308 319 329 335 339 343 346 351 355 354 353 353 357 2 5 6 6 4 2 1 1 2 3 5 7 8 8 6 6 7 8 7 4 2 2 1 1 1 1 360 357 354 352 349 346 345 341 338 337 338 340
237 238 242 253 246 223 209 206 208 211 212 210 207 208 213 218 223 227 226 220 215 213 214 216 223 233 245 258 271 277 281 286 296 305 314 327 337 339 342 347 352 356 357 355 355 358 4 7 8 8 6 4 3 3 3 4 5 6 7 8 8 8 8 8 7 7 5 3 3 3 3 2 3 2 0 358 357 354 351 347 343 341 341 343 346
233 232 239 252 242 217 204 203 207 212 215 212 207 207 212 221 228 227 219 214 214 214 213 217 223 233 245 258 267 271 277 287 297 307 320 333 339 341 346 353 358 1 359 358 0 5 10 11 10 9 8 7 6 5 6 7 8 8 8 8 9 10 11 9 8 7 6 4 3 4 4 4 4 5 4 3 1 358 355 351 350 349 347 348 350
228 228 238 246 234 214 206 204 208 213 217 215 211 209 214 223 226 220 212 211 213 213 215 219 224 234 247 256 261 267 276 286 295 310 327 336 338 344 353 360 4 5 3 3 7 12 14 13 11 9 9 9 9 9 8 10 11 10 9 10 11 11 11 9 8 8 7 6 5 5 6 6 6 7 8 6 4 1 359 357 358 358 354 351 352
224 230 242 244 229 217 213 208 209 215 219 219 218 215 217 222 220 213 210 210 211 212 216 220 225 235 247 254 258 265 275 283 295 315 331 334 338 350 1 8 9 9 8 10 13 15 15 14 11 11 11 11 11 11 10 12 13 12 11 12 13 13 11 10 9 9 9 8 7 6 7 7 7 8 10 9 7 4 2 2 2 2 360 355 353
227 234 243 241 226 220 220 215 214 219 222 223 223 220 220 220 215 211 210 210 210 212 215 219 226 236 244 250 255 262 269 278 294 317 327 330 344 2 13 16 15 14 16 18 17 16 16 14 11 11 12 12 12 12 11 11 13 13 12 13 13 13 13 12 10 10 10 10 10 9 9 8 8 9 11 11 10 8 5 4 4 5 4 1 359
229 232 236 232 221 218 221 221 221 222 224 225 225 223 220 216 212 211 212 210 209 211 213 217 226 235 242 245 249 254 260 269 286 308 317 330 0 20 23 22 22 23 25 24 20 17 15 14 12 11 11 12 12 12 11 11 11 11 11 11 12 12 12 12 12 12 11 11 11 11 12 11 9 9 11 12 11 10 8 6 7 9 11 10 7
229 230 229 224 219 217 220 225 225 224 225 225 224 222 219 213 210 212 213 211 210 209 210 217 225 232 236 239 242 244 247 254 269 285 299 344 31 36 32 30 32 34 32 28 22 17 14 13 11 10 10 10 10 10 11 10 9 9 9 8 9 9 10 11 11 12 13 13 13 13 13 13 12 10 11 12 12 11 11 10 10 13 16 18 18
230 230 225 219 219 222 228 231 229 225 224 223 218 215 213 211 209 211 212 211 211 209 211 219 225 228 231 233 234 236 237 237 236 242 240 76 63 54 46 40 41 40 37 31 23 15 10 9 8 6 5 5 5 6 7 7 6 6 5 5 5 6 7 8 9 10 12 13 13 13 14 14 14 11 11 12 13 13 13 12 12 14 16 19 23
230 227 220 215 223 234 239 235 229 225 223 221 215 212 211 210 208 209 210 210 210 211 216 221 223 225 227 229 229 228 225 219 211 205 175 115 86 72 59 46 42 41 37 30 20 11 5 2 1 359 357 358 359 360 1 1 0 360 360 360 1 3 5 6 6 7 9 11 12 13 13 14 14 13 12 12 14 15 15 14 13 15 17 18 22
225 222 216 215 228 240 238 231 226 224 222 219 215 215 214 211 208 207 207 207 208 214 220 221 221 221 221 222 223 219 212 204 197 188 165 129 102 84 65 41 33 34 32 24 14 5 358 353 351 350 350 351 351 351 352 352 352 352 354 355 356 359 1 2 3 4 6 8 10 11 12 13 13 14 14 13 14 16 17 17 15 15 17 19 21
218 218 217 217 226 234 233 227 223 222 220 217 216 216 213 209 207 207 206 204 206 214 218 218 218 219 219 219 216 210 202 196 191 182 164 136 112 92 66 26 16 21 20 13 6 358 352 348 345 343 342 342 342 342 342 343 344 345 348 349 351 353 355 357 359 0 2 4 6 8 9 11 12 13 14 14 15 16 17 18 17 16 16 19 22
215 216 218 220 225 230 228 224 222 222 220 216 216 216 212 207 207 208 206 205 209 216 220 218 217 218 219 218 214 206 198 193 189 181 167 146 126 103 53 359 360 4 1 356 351 347 345 344 340 337 335 335 335 336 337 338 339 341 343 345 347 349 351 352 354 357 359 0 2 4 6 8 9 11 13 14 15 16 16 18 19 17 16 17 21
216 214 215 217 223 226 223 221 222 224 221 216 214 213 210 208 208 207 206 207 211 216 220 220 218 217 217 216 212 205 198 193 190 185 174 164 160 155 325 335 345 347 340 337 336 334 334 336 334 332 331 330 331 333 334 335 337 339 341 343 344 346 348 349 351 353 355 357 358 360 2 4 7 9 11 12 14 15 16 17 19 20 18 17 18
221 218 215 212 215 218 218 219 222 224 222 218 214 209 207 208 209 209 210 212 213 214 216 217 217 217 217 215 210 204 199 196 193 191 187 189 209 253 291 317 328 327 323 323 324 325 327 328 328 328 328 327 328 331 332 334 336 337 339 341 343 345 346 348 349 351 352 353 354 356 358 1 3 6 8 10 11 13 15 17 19 21 21 19 18
234 225 218 212 211 213 215 216 220 222 222 219 215 209 206 207 209 211 212 214 215 215 214 215 216 216 216 215 210 205 202 200 198 198 202 210 230 256 280 303 312 311 311 314 316 318 321 323 323 324 325 326 327 329 331 333 335 336 338 340 342 344 345 347 348 349 349 349 351 352 354 357 359 2 5 7 9 10 13 15 17 19 21 22 20
248 231 221 215 210 209 212 214 217 219 219 217 213 208 205 206 208 210 210 212 216 217 216 216 217 217 216 215 211 207 205 204 204 207 214 226 242 259 275 291 299 301 305 309 311 314 317 319 320 321 323 324 326 328 330 332 334 335 337 339 341 343 344 345 346 347 347 347 348 349 351 353 356 358 1 4 7 8 10 13 15 17 19 22 22
250 231 222 218 211 207 208 211 215 216 216 214 210 205 205 207 209 208 207 208 213 216 215 215 216 217 217 216 213 210 209 209 211 216 225 237 250 263 275 285 292 297 301 305 307 311 314 316 318 319 320 323 324 326 328 331 332 333 334 336 338 341 342 343 344 344 345 346 346 348 349 350 352 354 356 359 3 6 8 10 13 15 17 19 21
252 234 225 219 212 207 205 207 210 212 211 209 206 204 206 209 209 208 207 208 210 211 210 211 213 215 216 216 214 213 212 214 218 224 234 247 256 266 276 284 289 294 297 300 304 309 312 314 315 317 318 320 322 323 325 327 328 329 330 331 333 336 337 339 340 341 342 344 345 346 347 348 349 351 353 355 358 2 5 7 10 13 15 17 19
263 249 235 223 214 207 204 204 207 208 206 204 203 204 206 208 208 208 208 209 212 212 211 211 212 214 215 215 215 215 216 219 225 232 241 252 260 269 277 284 287 290 294 297 302 307 311 312 313 314 315 317 319 321 322 322 321 321 323 326 328 330 331 333 335 337 338 341 342 344 345 346 347 348 350 352 354 357 0 4 6 9 12 15 17
268 259 245 230 220 212 207 203 202 204 205 203 201 204 207 208 208 207 208 211 214 214 214 214 214 214 215 216 217 218 220 224 230 238 247 255 263 272 279 283 287 290 294 298 302 307 310 310 311 312 313 315 318 319 319 318 315 314 316 320 323 325 327 328 330 332 334 336 338 340 342 344 345 346 347 349 351 352 355 358 1 4 7 10 13
267 262 249 234 224 218 213 204 196 198 203 203 201 203 207 208 207 208 210 213 214 214 215 217 216 215 217 218 219 221 224 230 236 243 249 256 264 271 277 282 286 291 295 299 302 306 308 309 310 311 312 314 317 317 316 314 312 311 311 314 317 320 322 323 325 327 328 330 331 334 337 339 342 344 346 347 348 349 350 353 356 359 2 6 9
267 263 250 235 224 218 214 206 198 197 201 203 202 204 206 207 207 209 211 214 216 216 217 217 217 219 221 221 222 224 228 234 241 247 251 257 263 269 275 280 285 289 293 297 301 304 306 308 309 310 311 313 314 314 313 313 313 312 311 311 313 315 316 318 319 321 322 324 326 329 332 334 337 340 343 345 346 346 347 349 352 354 358 1 4
266 262 249 236 227 219 214 207 201 200 202 202 202 204 206 206 207 208 211 214 217 219 220 219 219 221 224 224 223 226 231 238 244 249 253 258 264 270 276 281 286 290 294 297 300 303 305 306 307 308 310 312 313 312 313 314 315 314 314 314 314 315 315 315 316 317 318 320 322 324 327 329 331 334 337 340 343 345 345 345 346 348 351 354 358
264 261 250 241 233 227 221 212 201 197 200 202 202 203 204 204 205 208 211 215 218 220 221 221 220 222 225 226 225 227 233 240 245 250 255 260 266 272 278 282 287 291 295 298 301 303 304 305 306 308 310 311 311 312 313 314 315 315 316 317 317 318 317 317 318 318 318 320 321 323 325 326 327 329 332 335 337 340 342 343 343 344 345 347 350
262 260 252 245 239 233 226 216 202 196 198 200 200 201 203 204 205 209 214 218 221 221 222 222 221 223 226 227 227 230 235 240 245 250 257 262 268 273 279 284 288 291 294 297 300 302 303 305 306 307 308 308 309 310 312 313 313 314 315 317 318 320 320 320 320 321 321 322 323 325 326 326 325 325 326 328 330 333 337 340 341 341 341 342 343
261 258 250 245 240 234 226 216 205 199 198 197 196 197 201 204 206 210 214 218 220 222 222 222 223 224 226 228 230 233 238 241 244 250 256 262 269 275 280 284 286 289 292 295 299 301 303 304 305 305 304 304 305 307 308 309 311 312 314 316 318 319 321 322 323 324 325 326 326 327 329 330 330 327 324 322 323 325 329 333 336 337 338 338 339
259 255 249 246 242 236 228 218 209 202 199 195 193 195 199 203 207 212 214 215 217 220 222 223 224 225 227 229 232 236 238 241 245 251 258 264 270 274 278 281 284 287 290 294 297 299 301 301 301 301 300 300 301 303 305 307 309 310 312 313 315 318 321 324 326 328 329 328 328 328 329 331 333 332 329 323 320 320 323 326 329 332 334 335 336
254 252 251 252 249 242 233 224 216 208 202 196 194 196 199 203 208 212 214 214 216 219 221 222 225 226 228 230 233 236 239 243 248 254 260 265 270 274 277 280 282 286 290 293 294 296 298 298 298 297 296 298 300 303 306 309 310 311 311 311 313 316 321 325 328 330 330 328 327 328 330 331 333 335 335 330 323 320 321 323 325 328 329 330 330
255 256 256 256 257 253 242 231 222 216 208 201 197 197 200 204 210 213 214 214 216 219 221 222 224 224 226 229 233 237 240 245 251 256 261 267 272 275 278 281 283 285 288 290 292 293 294 294 293 293 295 298 302 305 307 310 311 311 311 311 312 315 320 324 327 330 330 330 330 331 333 335 338 340 342 340 335 329 326 325 325 326 326 326 326
257 259 257 256 257 255 245 233 225 218 209 201 196 197 202 207 210 212 213 214 216 219 221 222 223 224 226 229 232 237 242 247 253 258 265 270 274 276 278 280 282 283 285 287 289 289 289 289 291 293 296 300 303 304 306 308 310 311 311 311 311 313 317 321 325 328 331 334 336 338 339 342 344 346 347 347 346 342 336 332 329 328 327 325 323
255 256 255 255 253 246 237 229 221 210 201 196 196 200 204 208 209 209 211 213 216 219 221 223 225 227 230 232 235 240 245 250 255 261 266 270 273 275 277 278 279 281 282 284 285 285 287 289 292 295 298 300 302 304 306 307 308 308 308 307 307 309 313 316 319 323 327 332 336 338 340 342 345 346 346 347 348 347 345 341 338 335 333 331 327
252 253 255 255 250 239 229 220 208 198 194 196 201 205 208 209 209 210 212 215 218 222 224 225 227 231 234 236 239 243 246 251 256 262 266 269 271 273 276 278 279 280 281 282 284 286 288 290 292 294 296 298 301 303 305 306 306 305 304 304 304 305 308 310 313 316 320 324 328 331 333 335 337 338 339 340 341 342 342 342 341 340 339 338 336
250 254 256 254 243 229 217 205 195 192 195 202 208 209 209 210 211 213 216 218 220 223 226 228 230 233 236 239 242 245 249 254 259 263 265 268 271 273 275 277 278 279 281 283 285 287 288 289 290 292 294 297 300 302 303 304 304 303 301 301 301 302 304 307 308 309 311 314 318 321 324 326 327 328 330 331 332 333 333 334 334 335 335 336 336
Height
3135 3136 3137 3138 3140 3141 3142 3142 3143 3144 3145 3145 3146 3146 3147 3147 3147 3147 3147 3147 3146 3146 3146 3145 3145 3144 3144 3143 3142 3142 3141 3140 3139 3139 3138 3137 3136 3135 3135 3134 3133 3132 3131 3130 3128 3127 3125 3123 3121 3119 3117 3115 3112 3110 3108 3105 3103 3101 3098 3096 3093 3090 3087 3085 3082 3080 3079 3074 3070 3067 3065 3062 3059 3056 3053 3051 3049 3046 3043 3039 3036 3033 3031 3029 3028
3134 3135 3136 3137 3138 3140 3141 3141 3142 3143 3144 3144 3145 3145 3145 3145 3145 3145 3146 3145 3145 3144 3144 3143 3143 3143 3142 3142 3141 3140 3139 3139 3138 3138 3137 3136 3135 3135 3134 3133 3132 3131 3130 3128 3127 3125 3123 3121 3119 3117 3115 3113 3111 3109 3107 3104 3102 3099 3096 3093 3091 3087 3084 3081 3078 3075 3073 3071 3066 3063 3060 3056 3053 3050 3046 3043 3042 3040 3037 3034 3031 3028 3025 3022 3021
3132 3133 3135 3136 3137 3138 3139 3140 3141 3142 3143 3144 3144 3144 3144 3144 3144 3144 3144 3143 3143 3143 3142 3142 3142 3141 3141 3140 3139 3139 3138 3138 3137 3137 3136 3135 3134 3134 3133 3132 3131 3130 3129 3127 3126 3124 3122 3120 3118 3116 3114 3112 3110 3107 3105 3103 3100 3097 3094 3091 3088 3085 3082 3078 3075 3071 3068 3065 3062 3057 3054 3051 3047 3044 3040 3037 3034 3032 3029 3027 3025 3022 3019 3016 3014
3131 3132 3134 3135 3136 3137 3138 3139 3140 3141 3142 3142 3143 3143 3142 3142 3142 3142 3142 3142 3141 3141 3141 3141 3140 3140 3139 3138 3138 3138 3137 3137 3136 3136 3135 3134 3134 3133 3133 3132 3130 3129 3128 3126 3124 3123 3121 3119 3117 3115 3113 3110 3108 3106 3103 3101 3098 3095 3093 3090 3086 3083 3080 3076 3072 3069 3064 3061 3058 3053 3049 3045 3042 3038 3034 3031 3028 3026 3023 3021 3019 3017 3014 3011 3008
3129 3131 3132 3134 3135 3136 3137 3138 3139 3140 3140 3141 3141 3141 3141 3140 3140 3140 3140 3140 3140 3140 3139 3139 3138 3138 3138 3137 3137 3136 3136 3136 3136 3135 3135 3134 3133 3133 3132 3131 3129 3128 3127 3125 3123 3122 3120 3118 3116 3114 3112 3109 3107 3104 3101 3099 3096 3094 3091 3088 3085 3081 3077 3074 3070 3066 3062 3057 3054 3050 3045 3041 3037 3033 3029 3024 3021 3020 3018 3017 3014 3011 3009 3007 3004
3128 3129 3131 3132 3133 3135 3135 3136 3137 3138 3139 3139 3139 3139 3139 3138 3138 3138 3139 3139 3138 3138 3138 3137 3137 3136 3136 3136 3136 3135 3135 3135 3135 3134 3134 3133 3132 3132 3131 3130 3129 3127 3126 3124 3122 3121 3119 3117 3115 3113 3110 3108 3105 3102 3100 3097 3094 3092 3089 3086 3082 3079 3075 3071 3067 3063 3060 3055 3050 3046 3042 3037 3032 3028 3025 3020 3015 3012 3010 3010 3010 3008 3004 3001 3000
3126 3127 3129 3130 3132 3133 3133 3134 3135 3136 3137 3137 3137 3137 3136 3136 3137 3137 3137 3137 3137 3136 3136 3136 3135 3135 3135 3135 3135 3135 3134 3134 3134 3134 3133 3132 3131 3130 3130 3129 3128 3126 3125 3123 3121 3119 3118 3116 3114 3112 3109 3106 3104 3101 3098 3096 3093 3090 3087 3083 3080 3076 3072 3068 3064 3060 3056 3052 3048 3043 3039 3035 3030 3025 3021 3017 3013 3009 3004 3001 3002 3002 3000 2996 2994
3125 3126 3127 3129 3130 3131 3132 3133 3133 3134 3135 3135 3135 3134 3134 3135 3135 3135 3135 3135 3135 3135 3134 3134 3134 3134 3134 3134 3134 3134 3133 3133 3133 3133 3132 3131 3130 3129 3128 3128 3126 3125 3123 3122 3120 3118 3117 3115 3112 3110 3107 3104 3102 3099 3097 3094 3091 3088 3084 3081 3077 3073 3070 3065 3062 3058 3054 3050 3045 3040 3036 3032 3027 3022 3018 3013 3009 3006 3001 2996 2993 2993 2992 2991 2988
3123 3125 3126 3127 3129 3129 3130 3131 3131 3132 3132 3132 3132 3132 3132 3132 3133 3133 3133 3133 3133 3133 3133 3133 3133 3133 3133 3133 3133 3133 3133 3132 3132 3132 3131 3130 3129 3128 3127 3126 3125 3124 3122 3121 3120 3117 3115 3113 3111 3108 3106 3103 3100 3097 3094 3091 3088 3085 3082 3078 3075 3071 3067 3064 3060 3055 3052 3047 3043 3038 3033 3029 3024 3018 3013 3009 3004 3000 2997 2993 2989 2986 2984 2984 2983
3121 3123 3124 3126 3127 3127 3128 3128 3129 3130 3130 3130 3130 3130 3130 3130 3131 3131 3132 3132 3132 3131 3131 3131 3132 3132 3132 3132 3132 3132 3132 3132 3131 3131 3130 3129 3128 3126 3126 3125 3123 3122 3121 3120 3119 3116 3114 3111 3109 3107 3104 3102 3100 3097 3093 3090 3087 3083 3080 3076 3073 3069 3066 3062 3058 3054 3050 3046 3041 3036 3031 3026 3021 3015 3010 3006 3002 2997 2992 2988 2984 2981 2978 2975 2975
3119 3121 3122 3123 3124 3125 3125 3126 3126 3126 3127 3127 3127 3127 3128 3128 3129 3129 3130 3130 3130 3130 3130 3130 3130 3131 3131 3131 3131 3131 3131 3131 3130 3130 3129 3128 3127 3126 3125 3124 3123 3122 3120 3119 3117 3115 3113 3111 3108 3106 3104 3102 3099 3096 3093 3090 3087 3084 3080 3077 3073 3069 3065 3061 3057 3053 3049 3044 3040 3035 3029 3024 3019 3014 3008 3003 2998 2994 2989 2985 2980 2976 2973 2969 2966
3117 3119 3120 3121 3122 3122 3123 3123 3123 3123 3124 3124 3124 3125 3125 3126 3127 3127 3127 3128 3128 3128 3129 3129 3129 3130 3130 3130 3131 3130 3130 3130 3129 3129 3128 3127 3126 3125 3124 3123 3122 3121 3119 3117 3115 3113 3112 3110 3108 3106 3104 3101 3099 3096 3093 3090 3087 3084 3081 3078 3074 3071 3066 3061 3057 3052 3048 3043 3039 3034 3028 3022 3017 3012 3006 3000 2995 2990 2987 2983 2978 2973 2969 2965 2961
3114 3116 3118 3118 3119 3119 3120 3120 3119 3120 3121 3121 3122 3122 3123 3124 3125 3125 3126 3126 3127 3127 3128 3128 3129 3129 3130 3130 3130 3129 3129 3129 3128 3128 3127 3126 3125 3124 3123 3122 3121 3119 3118 3116 3114 3112 3110 3108 3107 3105 3103 3100 3098 3095 3093 3090 3088 3085 3082 3079 3075 3072 3068 3063 3058 3054 3048 3043 3038 3033 3027 3021 3016 3011 3005 2999 2993 2988 2983 2979 2976 2971 2967 2963 2958
3111 3114 3115 3115 3115 3116 3116 3115 3116 3117 3118 3118 3119 3120 3121 3122 3123 3123 3124 3125 3125 3126 3126 3127 3128 3129 3129 3129 3129 3128 3128 3128 3127 3127 3126 3125 3124 3123 3122 3121 3119 3118 3116 3114 3113 3111 3109 3108 3106 3104 3102 3099 3097 3095 3093 3090 3088 3085 3082 3079 3075 3071 3067 3063 3059 3055 3049 3043 3038 3032 3027 3022 3016 3011 3005 2999 2993 2987 2982 2977 2973 2968 2963 2959 2955
3110 3111 3112 3112 3112 3111 3111 3111 3112 3113 3115 3116 3117 3118 3119 3120 3121 3122 3123 3123 3124 3125 3125 3126 3127 3128 3128 3128 3128 3127 3127 3127 3127 3126 3125 3124 3123 3122 3121 3120 3118 3116 3115 3113 3112 3110 3109 3107 3105 3103 3101 3098 3096 3094 3092 3090 3087 3085 3081 3078 3075 3071 3067 3063 3059 3054 3049 3044 3038 3033 3028 3023 3017 3011 3006 3000 2994 2988 2983 2978 2973 2967 2961 2956 2952
3108 3109 3109 3110 3109 3109 3110 3110 3111 3112 3114 3115 3116 3117 3117 3118 3119 3120 3121 3122 3123 3123 3124 3126 3126 3127 3127 3127 3127 3126 3126 3126 3126 3125 3125 3124 3122 3121 3120 3118 3117 3115 3114 3112 3111 3109 3108 3106 3104 3102 3100 3098 3096 3094 3091 3089 3087 3084 3081 3078 3075 3071 3067 3063 3059 3054 3049 3045 3040 3035 3029 3024 3019 3014 3008 3001 2994 2988 2983 2978 2972 2965 2958 2951 2947
3106 3106 3107 3108 3107 3107 3108 3109 3110 3112 3113 3114 3115 3115 3116 3117 3118 3119 3120 3121 3121 3122 3124 3125 3125 3126 3126 3126 3126 3125 3125 3125 3125 3124 3123 3122 3121 3120 3119 3117 3116 3114 3113 3111 3110 3109 3108 3106 3104 3102 3099 3097 3095 3093 3091 3089 3086 3083 3081 3077 3074 3071 3068 3064 3060 3055 3051 3046 3041 3037 3031 3026 3020 3015 3009 3002 2995 2988 2980 2974 2967 2960 2954 2946 2940
3103 3104 3106 3106 3105 3106 3106 3107 3108 3110 3112 3113 3114 3114 3114 3115 3117 3118 3118 3119 3120 3121 3123 3123 3124 3124 3125 3125 3125 3124 3124 3124 3123 3123 3122 3121 3120 3119 3118 3116 3115 3113 3112 3111 3110 3108 3107 3105 3103 3101 3099 3097 3095 3093 3091 3088 3085 3083 3080 3076 3073 3070 3066 3062 3059 3055 3051 3047 3043 3038 3032 3027 3021 3015 3009 3003 2996 2988 2980 2973 2965 2958 2952 2944 2935
3101 3103 3103 3103 3103 3104 3104 3105 3106 3108 3109 3111 3112 3112 3113 3114 3115 3116 3117 3118 3119 3120 3121 3122 3123 3123 3123 3123 3123 3123 3123 3123 3122 3121 3120 3119 3119 3118 3117 3115 3114 3113 3112 3110 3109 3108 3106 3104 3102 3100 3099 3097 3095 3093 3090 3087 3085 3081 3078 3076 3073 3069 3065 3060 3056 3053 3050 3046 3041 3037 3032 3026 3020 3015 3009 3003 2996 2989 2981 2975 2967 2958 2950 2942 2933
3099 3100 3101 3101 3101 3102 3102 3103 3105 3106 3107 3109 3109 3110 3111 3112 3113 3115 3116 3117 3118 3119 3120 3121 3121 3122 3122 3122 3122 3122 3122 3121 3120 3120 3119 3118 3117 3117 3116 3114 3113 3112 3111 3110 3109 3107 3105 3104 3102 3101 3099 3097 3095 3092 3090 3087 3084 3081 3078 3075 3072 3068 3064 3060 3057 3053 3049 3045 3040 3036 3031 3026 3021 3015 3009 3002 2995 2989 2983 2976 2968 2959 2948 2940 2934
3097 3098 3098 3098 3099 3100 3101 3102 3103 3104 3105 3106 3107 3108 3110 3111 3112 3113 3115 3116 3117 3118 3119 3120 3120 3120 3121 3121 3121 3121 3120 3120 3119 3118 3118 3117 3116 3116 3114 3113 3112 3111 3110 3109 3108 3106 3105 3103 3102 3101 3099 3097 3095 3093 3090 3087 3084 3081 3078 3075 3071 3067 3064 3061 3058 3054 3050 3045 3041 3036 3031 3026 3021 3015 3008 3001 2995 2988 2982 2976 2968 2959 2950 2940 2934
3094 3095 3095 3096 3097 3099 3100 3100 3101 3102 3103 3104 3105 3106 3108 3109 3110 3111 3113 3115 3116 3117 3118 3118 3119 3119 3119 3120 3120 3119 3119 3118 3118 3117 3116 3116 3116 3115 3113 3112 3111 3111 3110 3109 3108 3106 3105 3104 3102 3101 3099 3097 3095 3092 3090 3087 3084 3081 3078 3075 3072 3069 3065 3062 3059 3055 3051 3046 3041 3035 3030 3024 3019 3013 3008 3002 2995 2989 2982 2976 2969 2961 2954 2945 2937
3092 3093 3094 3095 3096 3097 3098 3099 3100 3101 3101 3102 3103 3105 3106 3107 3109 3110 3112 3113 3114 3115 3116 3117 3117 3118 3118 3118 3118 3118 3118 3117 3116 3116 3116 3116 3115 3114 3113 3112 3111 3111 3110 3109 3107 3106 3105 3104 3102 3101 3099 3097 3095 3092 3090 3087 3084 3082 3079 3075 3072 3069 3066 3063 3060 3055 3051 3046 3041 3035 3029 3023 3018 3013 3007 3001 2996 2990 2984 2978 2972 2965 2957 2949 2941
3090 3091 3092 3093 3094 3095 3096 3097 3098 3099 3100 3101 3101 3103 3104 3106 3107 3109 3110 3112 3113 3114 3115 3115 3116 3116 3117 3117 3117 3117 3116 3116 3116 3115 3115 3115 3114 3113 3112 3111 3111 3110 3110 3108 3107 3106 3105 3103 3102 3100 3099 3097 3095 3092 3090 3087 3084 3082 3079 3076 3073 3070 3067 3063 3060 3055 3051 3046 3041 3036 3030 3024 3019 3013 3008 3002 2998 2994 2989 2983 2977 2970 2962 2953 2944
3088 3088 3090 3091 3092 3093 3094 3095 3096 3097 3098 3099 3100 3101 3103 3104 3106 3107 3109 3110 3111 3112 3113 3114 3114 3115 3116 3116 3116 3116 3115 3115 3115 3115 3115 3114 3113 3112 3112 3111 3111 3110 3109 3108 3107 3106 3104 3103 3102 3100 3098 3096 3094 3092 3090 3087 3084 3082 3079 3076 3073 3070 3067 3063 3059 3056 3051 3046 3041 3037 3032 3026 3021 3015 3011 3007 3002 2997 2992 2986 2979 2973 2966 2958 2950
3084 3086 3088 3089 3090 3091 3092 3093 3094 3095 3096 3096 3098 3099 3101 3103 3104 3106 3108 3109 3110 3111 3111 3112 3113 3114 3114 3114 3114 3115 3114 3114 3114 3114 3114 3113 3112 3112 3111 3111 3111 3110 3109 3108 3107 3105 3104 3103 3101 3100 3098 3096 3094 3092 3090 3087 3085 3082 3079 3076 3073 3070 3066 3062 3059 3055 3051 3047 3043 3038 3033 3029 3024 3020 3015 3010 3004 2997 2991 2985 2979 2973 2967 2961 2954
3082 3084 3085 3087 3088 3089 3090 3091 3092 3093 3094 3094 3095 3097 3099 3101 3103 3104 3106 3108 3108 3109 3110 3111 3112 3112 3113 3113 3113 3113 3113 3113 3113 3113 3113 3113 3112 3111 3111 3111 3111 3110 3108 3107 3106 3105 3104 3102 3101 3099 3098 3096 3094 3091 3089 3087 3085 3083 3080 3077 3073 3070 3066 3062 3059 3055 3052 3048 3044 3040 3036 3031 3027 3022 3017 3011 3005 2999 2993 2987 2981 2974 2969 2963 2958
3080 3082 3083 3084 3085 3087 3088 3089 3090 3091 3091 3092 3093 3095 3097 3099 3101 3103 3105 3106 3107 3108 3109 3110 3110 3111 3112 3112 3112 3112 3112 3112 3113 3113 3113 3112 3111 3111 3111 3111 3110 3109 3108 3107 3106 3105 3104 3102 3101 3099 3097 3095 3093 3091 3089 3087 3085 3083 3080 3077 3074 3071 3067 3064 3061 3057 3053 3050 3046 3042 3038 3033 3028 3024 3018 3012 3007 3002 2996 2990 2984 2978 2973 2967 2960
3077 3079 3080 3081 3082 3084 3085 3086 3087 3088 3089 3090 3092 3094 3096 3098 3100 3102 3103 3104 3105 3106 3107 3108 3109 3110 3110 3111 3111 3111 3111 3112 3112 3112 3112 3111 3110 3110 3110 3110 3110 3108 3107 3106 3105 3104 3103 3102 3100 3099 3097 3095 3093 3091 3089 3087 3085 3082 3080 3077 3074 3071 3068 3064 3061 3057 3053 3050 3046 3043 3039 3034 3030 3025 3020 3015 3009 3004 2998 2993 2988 2982 2977 2971 2964
3074 3075 3077 3078 3080 3081 3082 3084 3085 3086 3087 3089 3090 3092 3094 3096 3098 3100 3101 3102 3103 3104 3105 3106 3107 3108 3109 3110 3110 3110 3110 3111 3111 3111 3111 3110 3110 3109 3110 3109 3108 3107 3107 3106 3105 3104 3103 3101 3100 3099 3097 3095 3093 3091 3089 3087 3084 3082 3079 3077 3074 3070 3067 3064 3061 3057 3054 3050 3046 3043 3039 3035 3031 3026 3022 3017 3012 3007 3002 2996 2991 2986 2980 2974 2968
3070 3072 3073 3075 3077 3078 3080 3081 3083 3084 3085 3087 3088 3090 3092 3094 3096 3098 3099 3100 3102 3103 3104 3105 3106 3107 3108 3108 3109 3109 3109 3110 3110 3110 3109 3109 3109 3109 3109 3108 3107 3107 3106 3105 3104 3103 3102 3101 3099 3098 3096 3095 3092 3090 3088 3086 3083 3081 3078 3076 3073 3070 3067 3064 3061 3057 3054 3050 3047 3044 3040 3036 3032 3028 3023 3019 3015 3010 3005 3000 2995 2989 2983 2977 2972
3067 3068 3070 3072 3073 3075 3077 3079 3080 3082 3083 3084 3086 3088 3090 3092 3094 3096 3098 3099 3100 3101 3102 3103 3105 3105 3106 3107 3107 3108 3108 3108 3109 3109 3108 3108 3108 3108 3108 3107 3106 3106 3106 3105 3104 3102 3101 3100 3098 3097 3095 3093 3091 3089 3087 3085 3082 3080 3077 3075 3072 3069 3066 3063 3060 3057 3053 3051 3048 3044 3041 3037 3034 3030 3026 3021 3017 3012 3008 3002 2997 2992 2988 2983 2978
3064 3066 3068 3069 3070 3072 3074 3076 3077 3079 3080 3082 3084 3086 3089 3091 3093 3095 3096 3098 3099 3100 3100 3102 3103 3104 3105 3106 3106 3106 3107 3107 3107 3108 3107 3107 3107 3107 3107 3106 3105 3105 3105 3104 3103 3101 3100 3098 3097 3095 3094 3092 3090 3088 3086 3083 3081 3079 3076 3074 3071 3068 3066 3063 3060 3057 3054 3051 3048 3045 3041 3038 3035 3031 3028 3024 3019 3014 3010 3005 3001 2996 2991 2987 2982
3062 3064 3066 3066 3067 3069 3071 3073 3074 3076 3078 3080 3082 3085 3087 3090 3092 3093 3095 3096 3098 3098 3099 3100 3101 3102 3103 3104 3105 3105 3106 3106 3106 3106 3106 3106 3106 3106 3106 3105 3104 3104 3103 3102 3101 3100 3098 3097 3095 3094 3092 3090 3089 3087 3084 3082 3080 3078 3075 3073 3070 3068 3065 3062 3060 3057 3054 3051 3048 3045 3042 3039 3035 3032 3029 3026 3022 3017 3013 3008 3003 2998 2994 2989 2985
3060 3061 3062 3063 3064 3066 3068 3070 3072 3074 3076 3078 3080 3083 3086 3088 3089 3091 3093 3094 3096 3097 3098 3099 3099 3100 3102 3103 3103 3104 3104 3105 3105 3105 3105 3105 3105 3105 3104 3104 3103 3103 3102 3101 3100 3098 3097 3095 3094 3092 3090 3089 3087 3085 3083 3081 3079 3077 3074 3072 3069 3067 3064 3062 3059 3057 3054 3051 3048 3045 3042 3039 3036 3033 3030 3026 3023 3019 3015 3010 3006 3001 2997 2993 2989
3057 3059 3059 3060 3061 3062 3064 3067 3069 3071 3073 3076 3079 3081 3083 3085 3087 3089 3090 3092 3093 3094 3095 3096 3097 3098 3100 3101 3102 3102 3103 3103 3104 3104 3104 3104 3104 3103 3102 3102 3101 3101 3100 3099 3098 3097 3095 3093 3092 3090 3089 3087 3085 3084 3082 3080 3078 3075 3073 3070 3068 3066 3064 3061 3059 3056 3053 3051 3048 3045 3042 3039 3036 3034 3031 3028 3024 3021 3017 3013 3009 3005 3001 2997 2993
3055 3056 3057 3057 3058 3059 3060 3062 3065 3068 3071 3073 3076 3078 3080 3082 3084 3086 3088 3089 3091 3092 3093 3094 3095 3097 3098 3099 3100 3101 3101 3102 3102 3102 3102 3102 3102 3101 3100 3100 3100 3099 3098 3097 3096 3095 3093 3092 3090 3088 3087 3085 3083 3082 3080 3078 3076 3074 3071 3069 3066 3064 3062 3060 3057 3055 3052 3050 3047 3045 3042 3039 3036 3034 3031 3028 3025 3022 3019 3016 3012 3008 3005 3001 2997
3052 3053 3054 3055 3056 3056 3056 3057 3060 3064 3067 3070 3072 3074 3077 3079 3082 3084 3085 3087 3088 3089 3091 3092 3094 3095 3096 3097 3098 3099 3100 3100 3101 3101 3101 3100 3100 3099 3098 3098 3098 3097 3096 3095 3094 3093 3091 3090 3088 3086 3085 3083 3081 3080 3078 3076 3074 3072 3070 3068 3065 3063 3060 3058 3056 3054 3051 3049 3047 3044 3042 3039 3037 3034 3031 3029 3026 3023 3020 3017 3014 3011 3007 3004 3000
3049 3050 3051 3052 3053 3055 3055 3055 3057 3060 3063 3066 3069 3071 3074 3077 3079 3081 3083 3085 3086 3088 3089 3090 3092 3093 3094 3095 3096 3097 3098 3099 3099 3099 3099 3098 3098 3097 3097 3096 3096 3095 3094 3093 3092 3091 3089 3088 3086 3085 3083 3081 3079 3077 3075 3073 3071 3069 3067 3066 3064 3061 3059 3057 3055 3053 3050 3048 3046 3044 3042 3039 3037 3034 3031 3029 3026 3024 3021 3018 3015 3012 3009 3006 3002
3046 3047 3048 3048 3049 3051 3052 3054 3055 3057 3060 3064 3066 3069 3071 3074 3077 3079 3081 3083 3085 3086 3087 3089 3090 3091 3092 3093 3095 3096 3096 3097 3097 3097 3097 3096 3095 3095 3095 3094 3094 3093 3092 3091 3090 3088 3087 3086 3084 3083 3081 3079 3077 3075 3073 3071 3069 3067 3065 3063 3062 3060 3057 3055 3053 3051 3049 3047 3045 3043 3041 3039 3037 3034 3032 3029 3027 3024 3022 3019 3016 3013 3010 3007 3005
3042 3043 3044 3045 3046 3047 3048 3050 3052 3054 3058 3061 3063 3066 3069 3072 3074 3077 3079 3081 3083 3084 3085 3087 3088 3089 3090 3091 3093 3093 3094 3094 3095 3095 3094 3094 3093 3093 3092 3092 3091 3091 3090 3089 3087 3086 3085 3083 3082 3080 3078 3076 3074 3072 3070 3068 3066 3065 3063 3061 3059 3058 3056 3053 3051 3049 3047 3045 3043 3042 3040 3038 3036 3034 3031 3029 3027 3025 3022 3020 3017 3015 3012 3010 3007
3039 3040 3041 3043 3044 3045 3046 3048 3049 3051 3054 3057 3060 3063 3066 3069 3072 3074 3077 3079 3080 3081 3083 3084 3086 3087 3088 3089 3090 3091 3092 3092 3092 3092 3092 3091 3091 3090 3090 3089 3089 3088 3087 3086 3085 3084 3082 3081 3079 3078 3076 3074 3072 3070 3068 3066 3064 3063 3061 3059 3057 3056 3054 3052 3049 3047 3045 3043 3042 3040 3038 3036 3034 3032 3030 3028 3026 3024 3022 3020 3018 3015 3013 3011 3008
3036 3037 3038 3039 3041 3042 3044 3046 3047 3049 3051 3053 3057 3060 3063 3066 3068 3071 3074 3075 3077 3078 3080 3081 3083 3084 3085 3086 3087 3089 3089 3090 3090 3090 3089 3089 3088 3088 3088 3087 3086 3086 3085 3084 3082 3081 3080 3078 3077 3075 3073 3072 3070 3068 3066 3064 3063 3061 3059 3057 3055 3053 3052 3050 3047 3045 3043 3041 3039 3038 3036 3035 3033 3031 3029 3027 3025 3023 3021 3019 3018 3016 3013 3011 3009
3033 3034 3035 3036 3037 3038 3040 3042 3044 3045 3047 3050 3054 3057 3060 3062 3065 3068 3071 3073 3074 3075 3077 3079 3080 3082 3083 3084 3085 3086 3087 3087 3087 3087 3087 3086 3086 3086 3085 3084 3084 3083 3082 3081 3080 3078 3077 3075 3074 3073 3071 3070 3068 3066 3064 3063 3061 3059 3057 3055 3053 3051 3049 3047 3046 3044 3042 3039 3037 3035 3034 3032 3031 3029 3027 3025 3023 3022 3020 3018 3017 3015 3013 3011 3009
3029 3030 3031 3032 3033 3034 3036 3037 3039 3041 3044 3047 3050 3053 3056 3059 3063 3066 3068 3070 3072 3073 3074 3076 3078 3079 3080 3081 3082 3084 3084 3085 3084 3084 3084 3084 3083 3083 3083 3082 3081 3081 3080 3078 3077 3075 3074 3073 3072 3070 3069 3067 3066 3064 3062 3061 3059 3057 3055 3053 3051 3049 3048 3046 3044 3042 3040 3038 3035 3034 3032 3030 3028 3026 3025 3023 3021 3020 3018 3017 3015 3014 3012 3010 3008
3026 3028 3028 3029 3030 3031 3032 3034 3036 3038 3041 3044 3047 3051 3054 3058 3061 3064 3066 3068 3069 3070 3072 3073 3075 3076 3078 3079 3080 3081 3082 3082 3081 3081 3081 3081 3081 3081 3080 3079 3079 3078 3076 3075 3074 3073 3071 3070 3069 3068 3067 3065 3064 3062 3060 3058 3057 3055 3053 3051 3049 3048 3046 3044 3042 3041 3038 3036 3034 3032 3030 3028 3026 3024 3023 3021 3019 3018 3017 3015 3014 3012 3011 3009 3007
3024 3025 3026 3026 3027 3028 3029 3031 3033 3036 3038 3042 3046 3050 3053 3056 3059 3061 3063 3065 3066 3067 3069 3071 3072 3074 3075 3076 3077 3078 3079 3079 3078 3078 3078 3078 3078 3077 3077 3076 3075 3074 3073 3072 3071 3070 3069 3068 3066 3065 3064 3063 3061 3059 3058 3056 3054 3053 3051 3049 3047 3046 3044 3042 3041 3039 3037 3034 3032 3030 3028 3026 3024 3022 3021 3019 3018 3016 3015 3014 3012 3011 3009 3008 3006
3021 3022 3023 3024 3025 3026 3027 3029 3032 3034 3037 3041 3045 3048 3051 3054 3056 3058 3060 3062 3063 3065 3066 3068 3070 3071 3072 3073 3074 3075 3075 3075 3075 3075 3075 3075 3075 3074 3073 3073 3072 3071 3070 3069 3068 3067 3066 3065 3064 3062 3061 3059 3058 3057 3055 3054 3052 3050 3049 3047 3045 3044 3042 3041 3039 3037 3035 3033 3031 3029 3027 3025 3023 3021 3019 3018 3016 3015 3013 3012 3011 3009 3008 3006 3005
3019 3020 3021 3022 3023 3023 3025 3027 3030 3032 3036 3040 3043 3046 3049 3051 3053 3056 3057 3059 3060 3062 3064 3065 3067 3068 3069 3070 3071 3072 3072 3072 3072 3072 3072 3072 3071 3071 3070 3070 3069 3068 3067 3066 3065 3064 3063 3061 3060 3059 3058 3056 3055 3054 3052 3051 3049 3048 3046 3045 3043 3042 3040 3039 3037 3035 3033 3031 3030 3028 3026 3024 3022 3020 3018 3017 3015 3013 3012 3010 3009 3007 3006 3005 3003
3017 3018 3019 3020 3020 3022 3023 3025 3028 3031 3035 3039 3042 3044 3046 3048 3050 3052 3054 3055 3057 3059 3061 3062 3064 3065 3066 3067 3067 3068 3068 3068 3069 3069 3068 3068 3068 3067 3067 3066 3065 3064 3063 3063 3061 3060 3059 3058 3057 3056 3054 3053 3052 3050 3049 3048 3046 3045 3044 3043 3041 3040 3038 3037 3035 3033 3031 3029 3028 3026 3025 3023 3021 3019 3017 3016 3014 3012 3011 3009 3007 3006 3004 3003 3001
3014 3015 3016 3017 3018 3019 3021 3024 3027 3030 3034 3038 3040 3042 3044 3046 3047 3049 3051 3053 3054 3056 3058 3059 3060 3061 3062 3063 3063 3064 3064 3064 3065 3065 3065 3064 3064 3063 3063 3062 3062 3061 3060 3059 3058 3057 3056 3055 3054 3052 3051 3050 3048 3047 3046 3044 3043 3042 3041 3040 3039 3037 3036 3034 3033 3031 3029 3027 3025 3024 3023 3021 3019 3018 3016 3014 3012 3011 3009 3007 3006 3004 3002 3001 3000